Index of /20260502/WXO-DD/model_rdps/10km/12/044
Name Last modified Size Description
Parent Directory -
20260502T12Z_MSC_RDPS_AbsoluteVorticity_IsbL-0250_RLatLon0.09_PT044H.grib2 2026-05-02 14:53 625K
20260502T12Z_MSC_RDPS_AbsoluteVorticity_IsbL-0500_RLatLon0.09_PT044H.grib2 2026-05-02 14:53 697K
20260502T12Z_MSC_RDPS_AbsoluteVorticity_IsbL-0700_RLatLon0.09_PT044H.grib2 2026-05-02 14:53 619K
20260502T12Z_MSC_RDPS_AbsoluteVorticity_IsbL-0850_RLatLon0.09_PT044H.grib2 2026-05-02 14:53 796K
20260502T12Z_MSC_RDPS_AirTemp_AGL-120m_RLatLon0.09_PT044H.grib2 2026-05-02 14:53 378K
20260502T12Z_MSC_RDPS_AirTemp_AGL-2m_RLatLon0.09_PT044H.grib2 2026-05-02 14:53 638K
20260502T12Z_MSC_RDPS_AirTemp_AGL-40m_RLatLon0.09_PT044H.grib2 2026-05-02 14:53 409K
20260502T12Z_MSC_RDPS_AirTemp_AGL-80m_RLatLon0.09_PT044H.grib2 2026-05-02 14:53 385K
20260502T12Z_MSC_RDPS_AirTemp_IsbL-0001_RLatLon0.09_PT044H.grib2 2026-05-02 14:53 302K
20260502T12Z_MSC_RDPS_AirTemp_IsbL-0005_RLatLon0.09_PT044H.grib2 2026-05-02 14:53 291K
20260502T12Z_MSC_RDPS_AirTemp_IsbL-0010_RLatLon0.09_PT044H.grib2 2026-05-02 14:53 301K
20260502T12Z_MSC_RDPS_AirTemp_IsbL-0020_RLatLon0.09_PT044H.grib2 2026-05-02 14:53 416K
20260502T12Z_MSC_RDPS_AirTemp_IsbL-0030_RLatLon0.09_PT044H.grib2 2026-05-02 14:53 340K
20260502T12Z_MSC_RDPS_AirTemp_IsbL-0050_RLatLon0.09_PT044H.grib2 2026-05-02 14:53 319K
20260502T12Z_MSC_RDPS_AirTemp_IsbL-0100_RLatLon0.09_PT044H.grib2 2026-05-02 14:53 431K
20260502T12Z_MSC_RDPS_AirTemp_IsbL-0150_RLatLon0.09_PT044H.grib2 2026-05-02 14:53 425K
20260502T12Z_MSC_RDPS_AirTemp_IsbL-0175_RLatLon0.09_PT044H.grib2 2026-05-02 14:53 412K
20260502T12Z_MSC_RDPS_AirTemp_IsbL-0200_RLatLon0.09_PT044H.grib2 2026-05-02 14:53 417K
20260502T12Z_MSC_RDPS_AirTemp_IsbL-0225_RLatLon0.09_PT044H.grib2 2026-05-02 14:53 424K
20260502T12Z_MSC_RDPS_AirTemp_IsbL-0250_RLatLon0.09_PT044H.grib2 2026-05-02 14:53 431K
20260502T12Z_MSC_RDPS_AirTemp_IsbL-0275_RLatLon0.09_PT044H.grib2 2026-05-02 14:53 410K
20260502T12Z_MSC_RDPS_AirTemp_IsbL-0300_RLatLon0.09_PT044H.grib2 2026-05-02 14:53 414K
20260502T12Z_MSC_RDPS_AirTemp_IsbL-0350_RLatLon0.09_PT044H.grib2 2026-05-02 14:53 428K
20260502T12Z_MSC_RDPS_AirTemp_IsbL-0400_RLatLon0.09_PT044H.grib2 2026-05-02 14:53 432K
20260502T12Z_MSC_RDPS_AirTemp_IsbL-0450_RLatLon0.09_PT044H.grib2 2026-05-02 14:53 440K
20260502T12Z_MSC_RDPS_AirTemp_IsbL-0500_RLatLon0.09_PT044H.grib2 2026-05-02 14:53 414K
20260502T12Z_MSC_RDPS_AirTemp_IsbL-0550_RLatLon0.09_PT044H.grib2 2026-05-02 14:53 466K
20260502T12Z_MSC_RDPS_AirTemp_IsbL-0600_RLatLon0.09_PT044H.grib2 2026-05-02 14:53 445K
20260502T12Z_MSC_RDPS_AirTemp_IsbL-0650_RLatLon0.09_PT044H.grib2 2026-05-02 14:53 460K
20260502T12Z_MSC_RDPS_AirTemp_IsbL-0700_RLatLon0.09_PT044H.grib2 2026-05-02 14:53 377K
20260502T12Z_MSC_RDPS_AirTemp_IsbL-0750_RLatLon0.09_PT044H.grib2 2026-05-02 14:53 412K
20260502T12Z_MSC_RDPS_AirTemp_IsbL-0800_RLatLon0.09_PT044H.grib2 2026-05-02 14:53 583K
20260502T12Z_MSC_RDPS_AirTemp_IsbL-0850_RLatLon0.09_PT044H.grib2 2026-05-02 14:53 514K
20260502T12Z_MSC_RDPS_AirTemp_IsbL-0875_RLatLon0.09_PT044H.grib2 2026-05-02 14:53 530K
20260502T12Z_MSC_RDPS_AirTemp_IsbL-0900_RLatLon0.09_PT044H.grib2 2026-05-02 14:53 534K
20260502T12Z_MSC_RDPS_AirTemp_IsbL-0925_RLatLon0.09_PT044H.grib2 2026-05-02 14:53 526K
20260502T12Z_MSC_RDPS_AirTemp_IsbL-0950_RLatLon0.09_PT044H.grib2 2026-05-02 14:53 526K
20260502T12Z_MSC_RDPS_AirTemp_IsbL-0970_RLatLon0.09_PT044H.grib2 2026-05-02 14:53 519K
20260502T12Z_MSC_RDPS_AirTemp_IsbL-0985_RLatLon0.09_PT044H.grib2 2026-05-02 14:53 507K
20260502T12Z_MSC_RDPS_AirTemp_IsbL-1000_RLatLon0.09_PT044H.grib2 2026-05-02 14:53 494K
20260502T12Z_MSC_RDPS_AirTemp_IsbL-1015_RLatLon0.09_PT044H.grib2 2026-05-02 14:53 496K
20260502T12Z_MSC_RDPS_Albedo_Sfc_RLatLon0.09_PT044H.grib2 2026-05-02 14:53 159K
20260502T12Z_MSC_RDPS_CAPE_Sfc_RLatLon0.09_PT044H.grib2 2026-05-02 14:53 1.6M
20260502T12Z_MSC_RDPS_CIN_Sfc_RLatLon0.09_PT044H.grib2 2026-05-02 14:53 1.1M
20260502T12Z_MSC_RDPS_CloudWater_EAtm_RLatLon0.09_PT044H.grib2 2026-05-02 14:53 222K
20260502T12Z_MSC_RDPS_ConvectivePrecip-Accum_Sfc_RLatLon0.09_PT044H.grib2 2026-05-02 14:53 1.0M
20260502T12Z_MSC_RDPS_DewPointDepression_AGL-2m_RLatLon0.09_PT044H.grib2 2026-05-02 14:53 401K
20260502T12Z_MSC_RDPS_DewPointDepression_IsbL-0001_RLatLon0.09_PT044H.grib2 2026-05-02 14:53 193
20260502T12Z_MSC_RDPS_DewPointDepression_IsbL-0005_RLatLon0.09_PT044H.grib2 2026-05-02 14:53 193
20260502T12Z_MSC_RDPS_DewPointDepression_IsbL-0010_RLatLon0.09_PT044H.grib2 2026-05-02 14:53 193
20260502T12Z_MSC_RDPS_DewPointDepression_IsbL-0020_RLatLon0.09_PT044H.grib2 2026-05-02 14:53 193
20260502T12Z_MSC_RDPS_DewPointDepression_IsbL-0030_RLatLon0.09_PT044H.grib2 2026-05-02 14:53 193
20260502T12Z_MSC_RDPS_DewPointDepression_IsbL-0050_RLatLon0.09_PT044H.grib2 2026-05-02 14:53 77K
20260502T12Z_MSC_RDPS_DewPointDepression_IsbL-0100_RLatLon0.09_PT044H.grib2 2026-05-02 14:53 118K
20260502T12Z_MSC_RDPS_DewPointDepression_IsbL-0150_RLatLon0.09_PT044H.grib2 2026-05-02 14:53 144K
20260502T12Z_MSC_RDPS_DewPointDepression_IsbL-0175_RLatLon0.09_PT044H.grib2 2026-05-02 14:53 177K
20260502T12Z_MSC_RDPS_DewPointDepression_IsbL-0200_RLatLon0.09_PT044H.grib2 2026-05-02 14:53 218K
20260502T12Z_MSC_RDPS_DewPointDepression_IsbL-0225_RLatLon0.09_PT044H.grib2 2026-05-02 14:53 264K
20260502T12Z_MSC_RDPS_DewPointDepression_IsbL-0250_RLatLon0.09_PT044H.grib2 2026-05-02 14:53 304K
20260502T12Z_MSC_RDPS_DewPointDepression_IsbL-0275_RLatLon0.09_PT044H.grib2 2026-05-02 14:53 312K
20260502T12Z_MSC_RDPS_DewPointDepression_IsbL-0300_RLatLon0.09_PT044H.grib2 2026-05-02 14:53 329K
20260502T12Z_MSC_RDPS_DewPointDepression_IsbL-0350_RLatLon0.09_PT044H.grib2 2026-05-02 14:53 336K
20260502T12Z_MSC_RDPS_DewPointDepression_IsbL-0400_RLatLon0.09_PT044H.grib2 2026-05-02 14:53 345K
20260502T12Z_MSC_RDPS_DewPointDepression_IsbL-0450_RLatLon0.09_PT044H.grib2 2026-05-02 14:53 346K
20260502T12Z_MSC_RDPS_DewPointDepression_IsbL-0500_RLatLon0.09_PT044H.grib2 2026-05-02 14:53 349K
20260502T12Z_MSC_RDPS_DewPointDepression_IsbL-0550_RLatLon0.09_PT044H.grib2 2026-05-02 14:53 357K
20260502T12Z_MSC_RDPS_DewPointDepression_IsbL-0600_RLatLon0.09_PT044H.grib2 2026-05-02 14:53 370K
20260502T12Z_MSC_RDPS_DewPointDepression_IsbL-0650_RLatLon0.09_PT044H.grib2 2026-05-02 14:53 380K
20260502T12Z_MSC_RDPS_DewPointDepression_IsbL-0700_RLatLon0.09_PT044H.grib2 2026-05-02 14:53 388K
20260502T12Z_MSC_RDPS_DewPointDepression_IsbL-0750_RLatLon0.09_PT044H.grib2 2026-05-02 14:53 406K
20260502T12Z_MSC_RDPS_DewPointDepression_IsbL-0800_RLatLon0.09_PT044H.grib2 2026-05-02 14:53 447K
20260502T12Z_MSC_RDPS_DewPointDepression_IsbL-0850_RLatLon0.09_PT044H.grib2 2026-05-02 14:53 477K
20260502T12Z_MSC_RDPS_DewPointDepression_IsbL-0875_RLatLon0.09_PT044H.grib2 2026-05-02 14:53 474K
20260502T12Z_MSC_RDPS_DewPointDepression_IsbL-0900_RLatLon0.09_PT044H.grib2 2026-05-02 14:53 461K
20260502T12Z_MSC_RDPS_DewPointDepression_IsbL-0925_RLatLon0.09_PT044H.grib2 2026-05-02 14:53 446K
20260502T12Z_MSC_RDPS_DewPointDepression_IsbL-0950_RLatLon0.09_PT044H.grib2 2026-05-02 14:53 442K
20260502T12Z_MSC_RDPS_DewPointDepression_IsbL-0970_RLatLon0.09_PT044H.grib2 2026-05-02 14:53 436K
20260502T12Z_MSC_RDPS_DewPointDepression_IsbL-0985_RLatLon0.09_PT044H.grib2 2026-05-02 14:53 433K
20260502T12Z_MSC_RDPS_DewPointDepression_IsbL-1000_RLatLon0.09_PT044H.grib2 2026-05-02 14:53 429K
20260502T12Z_MSC_RDPS_DewPointDepression_IsbL-1015_RLatLon0.09_PT044H.grib2 2026-05-02 14:53 421K
20260502T12Z_MSC_RDPS_DewPoint_AGL-2m_RLatLon0.09_PT044H.grib2 2026-05-02 14:53 310K
20260502T12Z_MSC_RDPS_DownwardLongwaveRadiationFlux-Accum_Sfc_RLatLon0.09_PT044H.grib2 2026-05-02 14:53 363K
20260502T12Z_MSC_RDPS_DownwardShortwaveRadiationFlux-Accum_NTAtm_RLatLon0.09_PT044H.grib2 2026-05-02 14:53 122K
20260502T12Z_MSC_RDPS_DownwardShortwaveRadiationFlux-Accum_Sfc_RLatLon0.09_PT044H.grib2 2026-05-02 14:53 555K
20260502T12Z_MSC_RDPS_FreezingRain-Accum1h_Sfc_RLatLon0.09_PT044H.grib2 2026-05-02 14:53 41K
20260502T12Z_MSC_RDPS_FreezingRain-Accum_Sfc_RLatLon0.09_PT044H.grib2 2026-05-02 14:53 146K
20260502T12Z_MSC_RDPS_GeopotentialHeight_IsbL-0001_RLatLon0.09_PT044H.grib2 2026-05-02 14:53 242K
20260502T12Z_MSC_RDPS_GeopotentialHeight_IsbL-0005_RLatLon0.09_PT044H.grib2 2026-05-02 14:53 341K
20260502T12Z_MSC_RDPS_GeopotentialHeight_IsbL-0010_RLatLon0.09_PT044H.grib2 2026-05-02 14:53 310K
20260502T12Z_MSC_RDPS_GeopotentialHeight_IsbL-0020_RLatLon0.09_PT044H.grib2 2026-05-02 14:53 408K
20260502T12Z_MSC_RDPS_GeopotentialHeight_IsbL-0030_RLatLon0.09_PT044H.grib2 2026-05-02 14:53 410K
20260502T12Z_MSC_RDPS_GeopotentialHeight_IsbL-0050_RLatLon0.09_PT044H.grib2 2026-05-02 14:53 315K
20260502T12Z_MSC_RDPS_GeopotentialHeight_IsbL-0100_RLatLon0.09_PT044H.grib2 2026-05-02 14:53 291K
20260502T12Z_MSC_RDPS_GeopotentialHeight_IsbL-0150_RLatLon0.09_PT044H.grib2 2026-05-02 14:53 233K
20260502T12Z_MSC_RDPS_GeopotentialHeight_IsbL-0175_RLatLon0.09_PT044H.grib2 2026-05-02 14:53 236K
20260502T12Z_MSC_RDPS_GeopotentialHeight_IsbL-0200_RLatLon0.09_PT044H.grib2 2026-05-02 14:53 269K
20260502T12Z_MSC_RDPS_GeopotentialHeight_IsbL-0225_RLatLon0.09_PT044H.grib2 2026-05-02 14:53 270K
20260502T12Z_MSC_RDPS_GeopotentialHeight_IsbL-0250_RLatLon0.09_PT044H.grib2 2026-05-02 14:53 271K
20260502T12Z_MSC_RDPS_GeopotentialHeight_IsbL-0275_RLatLon0.09_PT044H.grib2 2026-05-02 14:53 240K
20260502T12Z_MSC_RDPS_GeopotentialHeight_IsbL-0300_RLatLon0.09_PT044H.grib2 2026-05-02 14:53 239K
20260502T12Z_MSC_RDPS_GeopotentialHeight_IsbL-0350_RLatLon0.09_PT044H.grib2 2026-05-02 14:53 235K
20260502T12Z_MSC_RDPS_GeopotentialHeight_IsbL-0400_RLatLon0.09_PT044H.grib2 2026-05-02 14:53 230K
20260502T12Z_MSC_RDPS_GeopotentialHeight_IsbL-0450_RLatLon0.09_PT044H.grib2 2026-05-02 14:53 301K
20260502T12Z_MSC_RDPS_GeopotentialHeight_IsbL-0500_RLatLon0.09_PT044H.grib2 2026-05-02 14:53 296K
20260502T12Z_MSC_RDPS_GeopotentialHeight_IsbL-0550_RLatLon0.09_PT044H.grib2 2026-05-02 14:53 292K
20260502T12Z_MSC_RDPS_GeopotentialHeight_IsbL-0600_RLatLon0.09_PT044H.grib2 2026-05-02 14:53 286K
20260502T12Z_MSC_RDPS_GeopotentialHeight_IsbL-0650_RLatLon0.09_PT044H.grib2 2026-05-02 14:53 257K
20260502T12Z_MSC_RDPS_GeopotentialHeight_IsbL-0700_RLatLon0.09_PT044H.grib2 2026-05-02 14:53 256K
20260502T12Z_MSC_RDPS_GeopotentialHeight_IsbL-0750_RLatLon0.09_PT044H.grib2 2026-05-02 14:53 342K
20260502T12Z_MSC_RDPS_GeopotentialHeight_IsbL-0800_RLatLon0.09_PT044H.grib2 2026-05-02 14:53 352K
20260502T12Z_MSC_RDPS_GeopotentialHeight_IsbL-0850_RLatLon0.09_PT044H.grib2 2026-05-02 14:53 362K
20260502T12Z_MSC_RDPS_GeopotentialHeight_IsbL-0875_RLatLon0.09_PT044H.grib2 2026-05-02 14:53 365K
20260502T12Z_MSC_RDPS_GeopotentialHeight_IsbL-0900_RLatLon0.09_PT044H.grib2 2026-05-02 14:53 368K
20260502T12Z_MSC_RDPS_GeopotentialHeight_IsbL-0925_RLatLon0.09_PT044H.grib2 2026-05-02 14:53 369K
20260502T12Z_MSC_RDPS_GeopotentialHeight_IsbL-0950_RLatLon0.09_PT044H.grib2 2026-05-02 14:53 373K
20260502T12Z_MSC_RDPS_GeopotentialHeight_IsbL-0970_RLatLon0.09_PT044H.grib2 2026-05-02 14:53 376K
20260502T12Z_MSC_RDPS_GeopotentialHeight_IsbL-0985_RLatLon0.09_PT044H.grib2 2026-05-02 14:53 295K
20260502T12Z_MSC_RDPS_GeopotentialHeight_IsbL-1000_RLatLon0.09_PT044H.grib2 2026-05-02 14:53 304K
20260502T12Z_MSC_RDPS_GeopotentialHeight_IsbL-1015_RLatLon0.09_PT044H.grib2 2026-05-02 14:53 315K
20260502T12Z_MSC_RDPS_Humidex_Sfc_RLatLon0.09_PT044H.grib2 2026-05-02 14:53 2.3M
20260502T12Z_MSC_RDPS_IcePellets-Accum1h_Sfc_RLatLon0.09_PT044H.grib2 2026-05-02 14:53 3.6K
20260502T12Z_MSC_RDPS_IcePellets-Accum_Sfc_RLatLon0.09_PT044H.grib2 2026-05-02 14:53 17K
20260502T12Z_MSC_RDPS_KIndex_Sfc_RLatLon0.09_PT044H.grib2 2026-05-02 14:53 2.5M
20260502T12Z_MSC_RDPS_LatentHeatNetFlux_Sfc_RLatLon0.09_PT044H.grib2 2026-05-02 14:53 419K
20260502T12Z_MSC_RDPS_LiftedIndex-MU-VT_IsbL-0500_RLatLon0.09_PT044H.grib2 2026-05-02 14:53 2.4M
20260502T12Z_MSC_RDPS_NetLongwaveRadiationFlux-Accum_Sfc_RLatLon0.09_PT044H.grib2 2026-05-02 14:53 539K
20260502T12Z_MSC_RDPS_NetShortwaveRadiationFlux-Accum_Sfc_RLatLon0.09_PT044H.grib2 2026-05-02 14:53 556K
20260502T12Z_MSC_RDPS_PlanetaryBoundaryLayerHeight_Sfc_RLatLon0.09_PT044H.grib2 2026-05-02 14:53 1.1M
20260502T12Z_MSC_RDPS_Precip-Accum1h_Sfc_RLatLon0.09_PT044H.grib2 2026-05-02 14:53 1.3M
20260502T12Z_MSC_RDPS_Precip-Accum_Sfc_RLatLon0.09_PT044H.grib2 2026-05-02 14:53 2.1M
20260502T12Z_MSC_RDPS_PrecipRate_Sfc_RLatLon0.09_PT044H.grib2 2026-05-02 14:53 187K
20260502T12Z_MSC_RDPS_PrecipType-Instant_Sfc_RLatLon0.09_PT044H.grib2 2026-05-02 14:53 627K
20260502T12Z_MSC_RDPS_Pressure-Trend3h_Sfc_RLatLon0.09_PT044H.grib2 2026-05-02 14:53 1.2M
20260502T12Z_MSC_RDPS_Pressure_MSL_RLatLon0.09_PT044H.grib2 2026-05-02 14:53 327K
20260502T12Z_MSC_RDPS_Pressure_PVU-1.5_RLatLon0.09_PT044H.grib2 2026-05-02 14:53 2.5M
20260502T12Z_MSC_RDPS_Pressure_PVU-1_RLatLon0.09_PT044H.grib2 2026-05-02 14:53 2.4M
20260502T12Z_MSC_RDPS_Pressure_PVU-2_RLatLon0.09_PT044H.grib2 2026-05-02 14:53 2.4M
20260502T12Z_MSC_RDPS_Pressure_Sfc_RLatLon0.09_PT044H.grib2 2026-05-02 14:53 499K
20260502T12Z_MSC_RDPS_RadiativeTemp_Sfc_RLatLon0.09_PT044H.grib2 2026-05-02 14:53 306K
20260502T12Z_MSC_RDPS_Rain-Accum1h_Sfc_RLatLon0.09_PT044H.grib2 2026-05-02 14:53 578K
20260502T12Z_MSC_RDPS_Rain-Accum_Sfc_RLatLon0.09_PT044H.grib2 2026-05-02 14:53 1.7M
20260502T12Z_MSC_RDPS_RelativeHumidity_AGL-2m_RLatLon0.09_PT044H.grib2 2026-05-02 14:53 1.0M
20260502T12Z_MSC_RDPS_RelativeHumidity_IsbL-0010_RLatLon0.09_PT044H.grib2 2026-05-02 14:53 627K
20260502T12Z_MSC_RDPS_RelativeHumidity_IsbL-0020_RLatLon0.09_PT044H.grib2 2026-05-02 14:53 670K
20260502T12Z_MSC_RDPS_RelativeHumidity_IsbL-0030_RLatLon0.09_PT044H.grib2 2026-05-02 14:53 606K
20260502T12Z_MSC_RDPS_RelativeHumidity_IsbL-0050_RLatLon0.09_PT044H.grib2 2026-05-02 14:53 362K
20260502T12Z_MSC_RDPS_RelativeHumidity_IsbL-0100_RLatLon0.09_PT044H.grib2 2026-05-02 14:53 279K
20260502T12Z_MSC_RDPS_RelativeHumidity_IsbL-0150_RLatLon0.09_PT044H.grib2 2026-05-02 14:53 412K
20260502T12Z_MSC_RDPS_RelativeHumidity_IsbL-0175_RLatLon0.09_PT044H.grib2 2026-05-02 14:53 472K
20260502T12Z_MSC_RDPS_RelativeHumidity_IsbL-0200_RLatLon0.09_PT044H.grib2 2026-05-02 14:53 550K
20260502T12Z_MSC_RDPS_RelativeHumidity_IsbL-0225_RLatLon0.09_PT044H.grib2 2026-05-02 14:53 625K
20260502T12Z_MSC_RDPS_RelativeHumidity_IsbL-0250_RLatLon0.09_PT044H.grib2 2026-05-02 14:53 698K
20260502T12Z_MSC_RDPS_RelativeHumidity_IsbL-0275_RLatLon0.09_PT044H.grib2 2026-05-02 14:53 723K
20260502T12Z_MSC_RDPS_RelativeHumidity_IsbL-0300_RLatLon0.09_PT044H.grib2 2026-05-02 14:53 760K
20260502T12Z_MSC_RDPS_RelativeHumidity_IsbL-0350_RLatLon0.09_PT044H.grib2 2026-05-02 14:53 785K
20260502T12Z_MSC_RDPS_RelativeHumidity_IsbL-0400_RLatLon0.09_PT044H.grib2 2026-05-02 14:53 796K
20260502T12Z_MSC_RDPS_RelativeHumidity_IsbL-0450_RLatLon0.09_PT044H.grib2 2026-05-02 14:53 794K
20260502T12Z_MSC_RDPS_RelativeHumidity_IsbL-0500_RLatLon0.09_PT044H.grib2 2026-05-02 14:53 798K
20260502T12Z_MSC_RDPS_RelativeHumidity_IsbL-0550_RLatLon0.09_PT044H.grib2 2026-05-02 14:53 815K
20260502T12Z_MSC_RDPS_RelativeHumidity_IsbL-0600_RLatLon0.09_PT044H.grib2 2026-05-02 14:53 835K
20260502T12Z_MSC_RDPS_RelativeHumidity_IsbL-0650_RLatLon0.09_PT044H.grib2 2026-05-02 14:53 850K
20260502T12Z_MSC_RDPS_RelativeHumidity_IsbL-0700_RLatLon0.09_PT044H.grib2 2026-05-02 14:53 871K
20260502T12Z_MSC_RDPS_RelativeHumidity_IsbL-0750_RLatLon0.09_PT044H.grib2 2026-05-02 14:53 918K
20260502T12Z_MSC_RDPS_RelativeHumidity_IsbL-0800_RLatLon0.09_PT044H.grib2 2026-05-02 14:53 1.0M
20260502T12Z_MSC_RDPS_RelativeHumidity_IsbL-0850_RLatLon0.09_PT044H.grib2 2026-05-02 14:53 1.0M
20260502T12Z_MSC_RDPS_RelativeHumidity_IsbL-0875_RLatLon0.09_PT044H.grib2 2026-05-02 14:53 1.1M
20260502T12Z_MSC_RDPS_RelativeHumidity_IsbL-0900_RLatLon0.09_PT044H.grib2 2026-05-02 14:53 1.1M
20260502T12Z_MSC_RDPS_RelativeHumidity_IsbL-0925_RLatLon0.09_PT044H.grib2 2026-05-02 14:53 1.1M
20260502T12Z_MSC_RDPS_RelativeHumidity_IsbL-0950_RLatLon0.09_PT044H.grib2 2026-05-02 14:53 1.1M
20260502T12Z_MSC_RDPS_RelativeHumidity_IsbL-0970_RLatLon0.09_PT044H.grib2 2026-05-02 14:53 1.0M
20260502T12Z_MSC_RDPS_RelativeHumidity_IsbL-0985_RLatLon0.09_PT044H.grib2 2026-05-02 14:53 1.0M
20260502T12Z_MSC_RDPS_RelativeHumidity_IsbL-1000_RLatLon0.09_PT044H.grib2 2026-05-02 14:53 1.0M
20260502T12Z_MSC_RDPS_RelativeHumidity_IsbL-1015_RLatLon0.09_PT044H.grib2 2026-05-02 14:53 1.0M
20260502T12Z_MSC_RDPS_Runoff-Accum_Sfc_RLatLon0.09_PT044H.grib2 2026-05-02 14:53 72K
20260502T12Z_MSC_RDPS_SWEATIndex_Sfc_RLatLon0.09_PT044H.grib2 2026-05-02 14:53 2.6M
20260502T12Z_MSC_RDPS_SeeingIndex_EAtm_RLatLon0.09_PT044H.grib2 2026-05-02 14:53 1.0M
20260502T12Z_MSC_RDPS_SensibleHeatNetFlux_Sfc_RLatLon0.09_PT044H.grib2 2026-05-02 14:53 298K
20260502T12Z_MSC_RDPS_ShowalterIndex_IsbL-0500_RLatLon0.09_PT044H.grib2 2026-05-02 14:53 2.6M
20260502T12Z_MSC_RDPS_SkyTransparencyIndex_EAtm_RLatLon0.09_PT044H.grib2 2026-05-02 14:53 724K
20260502T12Z_MSC_RDPS_Snow-Accum1h_Sfc_RLatLon0.09_PT044H.grib2 2026-05-02 14:53 466K
20260502T12Z_MSC_RDPS_Snow-Accum_Sfc_RLatLon0.09_PT044H.grib2 2026-05-02 14:53 767K
20260502T12Z_MSC_RDPS_SnowDensity_Sfc_RLatLon0.09_PT044H.grib2 2026-05-02 14:53 171K
20260502T12Z_MSC_RDPS_SnowDepth_Sfc_RLatLon0.09_PT044H.grib2 2026-05-02 14:53 651K
20260502T12Z_MSC_RDPS_SoilTemp_DBS-0to10cm_RLatLon0.09_PT044H.grib2 2026-05-02 14:53 238K
20260502T12Z_MSC_RDPS_SoilTemp_Sfc_RLatLon0.09_PT044H.grib2 2026-05-02 14:53 273K
20260502T12Z_MSC_RDPS_SoilVolumetricIceContent_Sfc_RLatLon0.09_PT044H.grib2 2026-05-02 14:53 155K
20260502T12Z_MSC_RDPS_SoilVolumetricWaterContent_DBS-0to10cm_RLatLon0.09_PT044H.grib2 2026-05-02 14:53 275K
20260502T12Z_MSC_RDPS_SoilVolumetricWaterContent_DBS-0to1cm_RLatLon0.09_PT044H.grib2 2026-05-02 14:53 342K
20260502T12Z_MSC_RDPS_SpecificHumidity_AGL-120m_RLatLon0.09_PT044H.grib2 2026-05-02 14:53 493K
20260502T12Z_MSC_RDPS_SpecificHumidity_AGL-2m_RLatLon0.09_PT044H.grib2 2026-05-02 14:53 662K
20260502T12Z_MSC_RDPS_SpecificHumidity_AGL-40m_RLatLon0.09_PT044H.grib2 2026-05-02 14:53 499K
20260502T12Z_MSC_RDPS_SpecificHumidity_AGL-80m_RLatLon0.09_PT044H.grib2 2026-05-02 14:53 494K
20260502T12Z_MSC_RDPS_SpecificHumidity_IsbL-0001_RLatLon0.09_PT044H.grib2 2026-05-02 14:53 353K
20260502T12Z_MSC_RDPS_SpecificHumidity_IsbL-0005_RLatLon0.09_PT044H.grib2 2026-05-02 14:53 367K
20260502T12Z_MSC_RDPS_SpecificHumidity_IsbL-0010_RLatLon0.09_PT044H.grib2 2026-05-02 14:53 402K
20260502T12Z_MSC_RDPS_SpecificHumidity_IsbL-0020_RLatLon0.09_PT044H.grib2 2026-05-02 14:53 379K
20260502T12Z_MSC_RDPS_SpecificHumidity_IsbL-0030_RLatLon0.09_PT044H.grib2 2026-05-02 14:53 373K
20260502T12Z_MSC_RDPS_SpecificHumidity_IsbL-0050_RLatLon0.09_PT044H.grib2 2026-05-02 14:53 484K
20260502T12Z_MSC_RDPS_SpecificHumidity_IsbL-0100_RLatLon0.09_PT044H.grib2 2026-05-02 14:53 424K
20260502T12Z_MSC_RDPS_SpecificHumidity_IsbL-0150_RLatLon0.09_PT044H.grib2 2026-05-02 14:53 449K
20260502T12Z_MSC_RDPS_SpecificHumidity_IsbL-0175_RLatLon0.09_PT044H.grib2 2026-05-02 14:53 435K
20260502T12Z_MSC_RDPS_SpecificHumidity_IsbL-0200_RLatLon0.09_PT044H.grib2 2026-05-02 14:53 454K
20260502T12Z_MSC_RDPS_SpecificHumidity_IsbL-0225_RLatLon0.09_PT044H.grib2 2026-05-02 14:53 460K
20260502T12Z_MSC_RDPS_SpecificHumidity_IsbL-0250_RLatLon0.09_PT044H.grib2 2026-05-02 14:53 526K
20260502T12Z_MSC_RDPS_SpecificHumidity_IsbL-0275_RLatLon0.09_PT044H.grib2 2026-05-02 14:53 486K
20260502T12Z_MSC_RDPS_SpecificHumidity_IsbL-0300_RLatLon0.09_PT044H.grib2 2026-05-02 14:53 457K
20260502T12Z_MSC_RDPS_SpecificHumidity_IsbL-0350_RLatLon0.09_PT044H.grib2 2026-05-02 14:53 453K
20260502T12Z_MSC_RDPS_SpecificHumidity_IsbL-0400_RLatLon0.09_PT044H.grib2 2026-05-02 14:53 530K
20260502T12Z_MSC_RDPS_SpecificHumidity_IsbL-0450_RLatLon0.09_PT044H.grib2 2026-05-02 14:53 575K
20260502T12Z_MSC_RDPS_SpecificHumidity_IsbL-0500_RLatLon0.09_PT044H.grib2 2026-05-02 14:53 508K
20260502T12Z_MSC_RDPS_SpecificHumidity_IsbL-0550_RLatLon0.09_PT044H.grib2 2026-05-02 14:53 579K
20260502T12Z_MSC_RDPS_SpecificHumidity_IsbL-0600_RLatLon0.09_PT044H.grib2 2026-05-02 14:53 632K
20260502T12Z_MSC_RDPS_SpecificHumidity_IsbL-0650_RLatLon0.09_PT044H.grib2 2026-05-02 14:53 550K
20260502T12Z_MSC_RDPS_SpecificHumidity_IsbL-0700_RLatLon0.09_PT044H.grib2 2026-05-02 14:53 591K
20260502T12Z_MSC_RDPS_SpecificHumidity_IsbL-0750_RLatLon0.09_PT044H.grib2 2026-05-02 14:53 643K
20260502T12Z_MSC_RDPS_SpecificHumidity_IsbL-0800_RLatLon0.09_PT044H.grib2 2026-05-02 14:53 733K
20260502T12Z_MSC_RDPS_SpecificHumidity_IsbL-0850_RLatLon0.09_PT044H.grib2 2026-05-02 14:53 811K
20260502T12Z_MSC_RDPS_SpecificHumidity_IsbL-0875_RLatLon0.09_PT044H.grib2 2026-05-02 14:53 835K
20260502T12Z_MSC_RDPS_SpecificHumidity_IsbL-0900_RLatLon0.09_PT044H.grib2 2026-05-02 14:53 843K
20260502T12Z_MSC_RDPS_SpecificHumidity_IsbL-0925_RLatLon0.09_PT044H.grib2 2026-05-02 14:53 842K
20260502T12Z_MSC_RDPS_SpecificHumidity_IsbL-0950_RLatLon0.09_PT044H.grib2 2026-05-02 14:53 703K
20260502T12Z_MSC_RDPS_SpecificHumidity_IsbL-0970_RLatLon0.09_PT044H.grib2 2026-05-02 14:53 697K
20260502T12Z_MSC_RDPS_SpecificHumidity_IsbL-0985_RLatLon0.09_PT044H.grib2 2026-05-02 14:53 689K
20260502T12Z_MSC_RDPS_SpecificHumidity_IsbL-1000_RLatLon0.09_PT044H.grib2 2026-05-02 14:53 682K
20260502T12Z_MSC_RDPS_SpecificHumidity_IsbL-1015_RLatLon0.09_PT044H.grib2 2026-05-02 14:53 673K
20260502T12Z_MSC_RDPS_SpecificHumidity_Sfc_RLatLon0.09_PT044H.grib2 2026-05-02 14:53 298K
20260502T12Z_MSC_RDPS_StormRelativeHelicity_EtaL-10000_RLatLon0.09_PT044H.grib2 2026-05-02 14:53 1.1M
20260502T12Z_MSC_RDPS_StormSeverityIndex_EtaL-10000_RLatLon0.09_PT044H.grib2 2026-05-02 14:53 1.2M
20260502T12Z_MSC_RDPS_Thickness_IsbL-0850to0700_RLatLon0.09_PT044H.grib2 2026-05-02 14:53 178K
20260502T12Z_MSC_RDPS_Thickness_IsbL-1000to0500_RLatLon0.09_PT044H.grib2 2026-05-02 14:53 196K
20260502T12Z_MSC_RDPS_Thickness_IsbL-1000to0850_RLatLon0.09_PT044H.grib2 2026-05-02 14:53 262K
20260502T12Z_MSC_RDPS_TotalCloudCover_Sfc_RLatLon0.09_PT044H.grib2 2026-05-02 14:53 676K
20260502T12Z_MSC_RDPS_TotalTotalsIndex_Sfc_RLatLon0.09_PT044H.grib2 2026-05-02 14:53 2.4M
20260502T12Z_MSC_RDPS_UVIndex-ClearSky_Sfc_RLatLon0.09_PT044H.grib2 2026-05-02 14:53 103K
20260502T12Z_MSC_RDPS_UVIndex_Sfc_RLatLon0.09_PT044H.grib2 2026-05-02 14:53 182K
20260502T12Z_MSC_RDPS_UpwardLongwaveRadiationFlux_NTAtm_RLatLon0.09_PT044H.grib2 2026-05-02 14:53 494K
20260502T12Z_MSC_RDPS_UpwardShortwaveRadiationFlux_NTAtm_RLatLon0.09_PT044H.grib2 2026-05-02 14:53 152K
20260502T12Z_MSC_RDPS_VerticalVelocity_IsbL-0250_RLatLon0.09_PT044H.grib2 2026-05-02 14:53 443K
20260502T12Z_MSC_RDPS_VerticalVelocity_IsbL-0500_RLatLon0.09_PT044H.grib2 2026-05-02 14:53 553K
20260502T12Z_MSC_RDPS_VerticalVelocity_IsbL-0700_RLatLon0.09_PT044H.grib2 2026-05-02 14:53 602K
20260502T12Z_MSC_RDPS_VerticalVelocity_IsbL-0850_RLatLon0.09_PT044H.grib2 2026-05-02 14:53 712K
20260502T12Z_MSC_RDPS_VerticalWindShear_EtaL-6500_RLatLon0.09_PT044H.grib2 2026-05-02 14:53 1.2M
20260502T12Z_MSC_RDPS_WindChill_Sfc_RLatLon0.09_PT044H.grib2 2026-05-02 14:53 1.1M
20260502T12Z_MSC_RDPS_WindDir_AGL-10m_RLatLon0.09_PT044H.grib2 2026-05-02 14:53 1.0M
20260502T12Z_MSC_RDPS_WindDir_AGL-120m_RLatLon0.09_PT044H.grib2 2026-05-02 14:53 616K
20260502T12Z_MSC_RDPS_WindDir_AGL-40m_RLatLon0.09_PT044H.grib2 2026-05-02 14:53 648K
20260502T12Z_MSC_RDPS_WindDir_AGL-80m_RLatLon0.09_PT044H.grib2 2026-05-02 14:53 628K
20260502T12Z_MSC_RDPS_WindDir_IsbL-0001_RLatLon0.09_PT044H.grib2 2026-05-02 14:53 299K
20260502T12Z_MSC_RDPS_WindDir_IsbL-0005_RLatLon0.09_PT044H.grib2 2026-05-02 14:53 387K
20260502T12Z_MSC_RDPS_WindDir_IsbL-0010_RLatLon0.09_PT044H.grib2 2026-05-02 14:53 392K
20260502T12Z_MSC_RDPS_WindDir_IsbL-0020_RLatLon0.09_PT044H.grib2 2026-05-02 14:53 423K
20260502T12Z_MSC_RDPS_WindDir_IsbL-0030_RLatLon0.09_PT044H.grib2 2026-05-02 14:53 432K
20260502T12Z_MSC_RDPS_WindDir_IsbL-0050_RLatLon0.09_PT044H.grib2 2026-05-02 14:53 419K
20260502T12Z_MSC_RDPS_WindDir_IsbL-0100_RLatLon0.09_PT044H.grib2 2026-05-02 14:53 409K
20260502T12Z_MSC_RDPS_WindDir_IsbL-0150_RLatLon0.09_PT044H.grib2 2026-05-02 14:53 416K
20260502T12Z_MSC_RDPS_WindDir_IsbL-0175_RLatLon0.09_PT044H.grib2 2026-05-02 14:53 437K
20260502T12Z_MSC_RDPS_WindDir_IsbL-0200_RLatLon0.09_PT044H.grib2 2026-05-02 14:53 450K
20260502T12Z_MSC_RDPS_WindDir_IsbL-0225_RLatLon0.09_PT044H.grib2 2026-05-02 14:53 458K
20260502T12Z_MSC_RDPS_WindDir_IsbL-0250_RLatLon0.09_PT044H.grib2 2026-05-02 14:53 458K
20260502T12Z_MSC_RDPS_WindDir_IsbL-0275_RLatLon0.09_PT044H.grib2 2026-05-02 14:53 477K
20260502T12Z_MSC_RDPS_WindDir_IsbL-0300_RLatLon0.09_PT044H.grib2 2026-05-02 14:53 473K
20260502T12Z_MSC_RDPS_WindDir_IsbL-0350_RLatLon0.09_PT044H.grib2 2026-05-02 14:53 494K
20260502T12Z_MSC_RDPS_WindDir_IsbL-0400_RLatLon0.09_PT044H.grib2 2026-05-02 14:53 521K
20260502T12Z_MSC_RDPS_WindDir_IsbL-0450_RLatLon0.09_PT044H.grib2 2026-05-02 14:53 531K
20260502T12Z_MSC_RDPS_WindDir_IsbL-0500_RLatLon0.09_PT044H.grib2 2026-05-02 14:53 530K
20260502T12Z_MSC_RDPS_WindDir_IsbL-0550_RLatLon0.09_PT044H.grib2 2026-05-02 14:53 541K
20260502T12Z_MSC_RDPS_WindDir_IsbL-0600_RLatLon0.09_PT044H.grib2 2026-05-02 14:53 569K
20260502T12Z_MSC_RDPS_WindDir_IsbL-0650_RLatLon0.09_PT044H.grib2 2026-05-02 14:53 605K
20260502T12Z_MSC_RDPS_WindDir_IsbL-0700_RLatLon0.09_PT044H.grib2 2026-05-02 14:53 649K
20260502T12Z_MSC_RDPS_WindDir_IsbL-0750_RLatLon0.09_PT044H.grib2 2026-05-02 14:53 698K
20260502T12Z_MSC_RDPS_WindDir_IsbL-0800_RLatLon0.09_PT044H.grib2 2026-05-02 14:53 776K
20260502T12Z_MSC_RDPS_WindDir_IsbL-0850_RLatLon0.09_PT044H.grib2 2026-05-02 14:53 868K
20260502T12Z_MSC_RDPS_WindDir_IsbL-0875_RLatLon0.09_PT044H.grib2 2026-05-02 14:53 902K
20260502T12Z_MSC_RDPS_WindDir_IsbL-0900_RLatLon0.09_PT044H.grib2 2026-05-02 14:53 919K
20260502T12Z_MSC_RDPS_WindDir_IsbL-0925_RLatLon0.09_PT044H.grib2 2026-05-02 14:53 929K
20260502T12Z_MSC_RDPS_WindDir_IsbL-0950_RLatLon0.09_PT044H.grib2 2026-05-02 14:53 928K
20260502T12Z_MSC_RDPS_WindDir_IsbL-0970_RLatLon0.09_PT044H.grib2 2026-05-02 14:53 931K
20260502T12Z_MSC_RDPS_WindDir_IsbL-0985_RLatLon0.09_PT044H.grib2 2026-05-02 14:53 941K
20260502T12Z_MSC_RDPS_WindDir_IsbL-1000_RLatLon0.09_PT044H.grib2 2026-05-02 14:53 959K
20260502T12Z_MSC_RDPS_WindDir_IsbL-1015_RLatLon0.09_PT044H.grib2 2026-05-02 14:53 1.0M
20260502T12Z_MSC_RDPS_WindGust-Max_AGL-10m_RLatLon0.09_PT044H.grib2 2026-05-02 14:53 1.0M
20260502T12Z_MSC_RDPS_WindGust-Min_AGL-10m_RLatLon0.09_PT044H.grib2 2026-05-02 14:53 1.0M
20260502T12Z_MSC_RDPS_WindGust_AGL-10m_RLatLon0.09_PT044H.grib2 2026-05-02 14:53 1.0M
20260502T12Z_MSC_RDPS_WindSpeed_AGL-10m_RLatLon0.09_PT044H.grib2 2026-05-02 14:53 848K
20260502T12Z_MSC_RDPS_WindSpeed_AGL-120m_RLatLon0.09_PT044H.grib2 2026-05-02 14:53 546K
20260502T12Z_MSC_RDPS_WindSpeed_AGL-40m_RLatLon0.09_PT044H.grib2 2026-05-02 14:53 548K
20260502T12Z_MSC_RDPS_WindSpeed_AGL-80m_RLatLon0.09_PT044H.grib2 2026-05-02 14:53 547K
20260502T12Z_MSC_RDPS_WindSpeed_IsbL-0001_RLatLon0.09_PT044H.grib2 2026-05-02 14:53 253K
20260502T12Z_MSC_RDPS_WindSpeed_IsbL-0005_RLatLon0.09_PT044H.grib2 2026-05-02 14:53 388K
20260502T12Z_MSC_RDPS_WindSpeed_IsbL-0010_RLatLon0.09_PT044H.grib2 2026-05-02 14:53 368K
20260502T12Z_MSC_RDPS_WindSpeed_IsbL-0020_RLatLon0.09_PT044H.grib2 2026-05-02 14:53 422K
20260502T12Z_MSC_RDPS_WindSpeed_IsbL-0030_RLatLon0.09_PT044H.grib2 2026-05-02 14:53 326K
20260502T12Z_MSC_RDPS_WindSpeed_IsbL-0050_RLatLon0.09_PT044H.grib2 2026-05-02 14:53 354K
20260502T12Z_MSC_RDPS_WindSpeed_IsbL-0100_RLatLon0.09_PT044H.grib2 2026-05-02 14:53 482K
20260502T12Z_MSC_RDPS_WindSpeed_IsbL-0150_RLatLon0.09_PT044H.grib2 2026-05-02 14:53 389K
20260502T12Z_MSC_RDPS_WindSpeed_IsbL-0175_RLatLon0.09_PT044H.grib2 2026-05-02 14:53 433K
20260502T12Z_MSC_RDPS_WindSpeed_IsbL-0200_RLatLon0.09_PT044H.grib2 2026-05-02 14:53 448K
20260502T12Z_MSC_RDPS_WindSpeed_IsbL-0225_RLatLon0.09_PT044H.grib2 2026-05-02 14:53 455K
20260502T12Z_MSC_RDPS_WindSpeed_IsbL-0250_RLatLon0.09_PT044H.grib2 2026-05-02 14:53 459K
20260502T12Z_MSC_RDPS_WindSpeed_IsbL-0275_RLatLon0.09_PT044H.grib2 2026-05-02 14:53 477K
20260502T12Z_MSC_RDPS_WindSpeed_IsbL-0300_RLatLon0.09_PT044H.grib2 2026-05-02 14:53 473K
20260502T12Z_MSC_RDPS_WindSpeed_IsbL-0350_RLatLon0.09_PT044H.grib2 2026-05-02 14:53 482K
20260502T12Z_MSC_RDPS_WindSpeed_IsbL-0400_RLatLon0.09_PT044H.grib2 2026-05-02 14:53 486K
20260502T12Z_MSC_RDPS_WindSpeed_IsbL-0450_RLatLon0.09_PT044H.grib2 2026-05-02 14:53 470K
20260502T12Z_MSC_RDPS_WindSpeed_IsbL-0500_RLatLon0.09_PT044H.grib2 2026-05-02 14:53 468K
20260502T12Z_MSC_RDPS_WindSpeed_IsbL-0550_RLatLon0.09_PT044H.grib2 2026-05-02 14:53 584K
20260502T12Z_MSC_RDPS_WindSpeed_IsbL-0600_RLatLon0.09_PT044H.grib2 2026-05-02 14:53 592K
20260502T12Z_MSC_RDPS_WindSpeed_IsbL-0650_RLatLon0.09_PT044H.grib2 2026-05-02 14:53 610K
20260502T12Z_MSC_RDPS_WindSpeed_IsbL-0700_RLatLon0.09_PT044H.grib2 2026-05-02 14:53 635K
20260502T12Z_MSC_RDPS_WindSpeed_IsbL-0750_RLatLon0.09_PT044H.grib2 2026-05-02 14:53 710K
20260502T12Z_MSC_RDPS_WindSpeed_IsbL-0800_RLatLon0.09_PT044H.grib2 2026-05-02 14:53 767K
20260502T12Z_MSC_RDPS_WindSpeed_IsbL-0850_RLatLon0.09_PT044H.grib2 2026-05-02 14:53 831K
20260502T12Z_MSC_RDPS_WindSpeed_IsbL-0875_RLatLon0.09_PT044H.grib2 2026-05-02 14:53 854K
20260502T12Z_MSC_RDPS_WindSpeed_IsbL-0900_RLatLon0.09_PT044H.grib2 2026-05-02 14:53 865K
20260502T12Z_MSC_RDPS_WindSpeed_IsbL-0925_RLatLon0.09_PT044H.grib2 2026-05-02 14:53 876K
20260502T12Z_MSC_RDPS_WindSpeed_IsbL-0950_RLatLon0.09_PT044H.grib2 2026-05-02 14:53 874K
20260502T12Z_MSC_RDPS_WindSpeed_IsbL-0970_RLatLon0.09_PT044H.grib2 2026-05-02 14:53 872K
20260502T12Z_MSC_RDPS_WindSpeed_IsbL-0985_RLatLon0.09_PT044H.grib2 2026-05-02 14:53 862K
20260502T12Z_MSC_RDPS_WindSpeed_IsbL-1000_RLatLon0.09_PT044H.grib2 2026-05-02 14:53 857K
20260502T12Z_MSC_RDPS_WindSpeed_IsbL-1015_RLatLon0.09_PT044H.grib2 2026-05-02 14:53 848K
20260502T12Z_MSC_RDPS_WindU_AGL-10m_RLatLon0.09_PT044H.grib2 2026-05-02 14:53 434K
20260502T12Z_MSC_RDPS_WindU_AGL-120m_RLatLon0.09_PT044H.grib2 2026-05-02 14:53 540K
20260502T12Z_MSC_RDPS_WindU_AGL-40m_RLatLon0.09_PT044H.grib2 2026-05-02 14:53 542K
20260502T12Z_MSC_RDPS_WindU_AGL-80m_RLatLon0.09_PT044H.grib2 2026-05-02 14:53 541K
20260502T12Z_MSC_RDPS_WindU_IsbL-0001_RLatLon0.09_PT044H.grib2 2026-05-02 14:53 245K
20260502T12Z_MSC_RDPS_WindU_IsbL-0005_RLatLon0.09_PT044H.grib2 2026-05-02 14:53 286K
20260502T12Z_MSC_RDPS_WindU_IsbL-0010_RLatLon0.09_PT044H.grib2 2026-05-02 14:53 299K
20260502T12Z_MSC_RDPS_WindU_IsbL-0020_RLatLon0.09_PT044H.grib2 2026-05-02 14:53 356K
20260502T12Z_MSC_RDPS_WindU_IsbL-0030_RLatLon0.09_PT044H.grib2 2026-05-02 14:53 357K
20260502T12Z_MSC_RDPS_WindU_IsbL-0050_RLatLon0.09_PT044H.grib2 2026-05-02 14:53 384K
20260502T12Z_MSC_RDPS_WindU_IsbL-0100_RLatLon0.09_PT044H.grib2 2026-05-02 14:53 437K
20260502T12Z_MSC_RDPS_WindU_IsbL-0150_RLatLon0.09_PT044H.grib2 2026-05-02 14:53 403K
20260502T12Z_MSC_RDPS_WindU_IsbL-0175_RLatLon0.09_PT044H.grib2 2026-05-02 14:53 329K
20260502T12Z_MSC_RDPS_WindU_IsbL-0200_RLatLon0.09_PT044H.grib2 2026-05-02 14:53 341K
20260502T12Z_MSC_RDPS_WindU_IsbL-0225_RLatLon0.09_PT044H.grib2 2026-05-02 14:53 347K
20260502T12Z_MSC_RDPS_WindU_IsbL-0250_RLatLon0.09_PT044H.grib2 2026-05-02 14:53 348K
20260502T12Z_MSC_RDPS_WindU_IsbL-0275_RLatLon0.09_PT044H.grib2 2026-05-02 14:53 362K
20260502T12Z_MSC_RDPS_WindU_IsbL-0300_RLatLon0.09_PT044H.grib2 2026-05-02 14:53 358K
20260502T12Z_MSC_RDPS_WindU_IsbL-0350_RLatLon0.09_PT044H.grib2 2026-05-02 14:53 469K
20260502T12Z_MSC_RDPS_WindU_IsbL-0400_RLatLon0.09_PT044H.grib2 2026-05-02 14:53 474K
20260502T12Z_MSC_RDPS_WindU_IsbL-0450_RLatLon0.09_PT044H.grib2 2026-05-02 14:53 475K
20260502T12Z_MSC_RDPS_WindU_IsbL-0500_RLatLon0.09_PT044H.grib2 2026-05-02 14:53 474K
20260502T12Z_MSC_RDPS_WindU_IsbL-0550_RLatLon0.09_PT044H.grib2 2026-05-02 14:53 473K
20260502T12Z_MSC_RDPS_WindU_IsbL-0600_RLatLon0.09_PT044H.grib2 2026-05-02 14:53 464K
20260502T12Z_MSC_RDPS_WindU_IsbL-0650_RLatLon0.09_PT044H.grib2 2026-05-02 14:53 482K
20260502T12Z_MSC_RDPS_WindU_IsbL-0700_RLatLon0.09_PT044H.grib2 2026-05-02 14:53 504K
20260502T12Z_MSC_RDPS_WindU_IsbL-0750_RLatLon0.09_PT044H.grib2 2026-05-02 14:53 532K
20260502T12Z_MSC_RDPS_WindU_IsbL-0800_RLatLon0.09_PT044H.grib2 2026-05-02 14:53 581K
20260502T12Z_MSC_RDPS_WindU_IsbL-0850_RLatLon0.09_PT044H.grib2 2026-05-02 14:53 637K
20260502T12Z_MSC_RDPS_WindU_IsbL-0875_RLatLon0.09_PT044H.grib2 2026-05-02 14:53 657K
20260502T12Z_MSC_RDPS_WindU_IsbL-0900_RLatLon0.09_PT044H.grib2 2026-05-02 14:53 665K
20260502T12Z_MSC_RDPS_WindU_IsbL-0925_RLatLon0.09_PT044H.grib2 2026-05-02 14:53 670K
20260502T12Z_MSC_RDPS_WindU_IsbL-0950_RLatLon0.09_PT044H.grib2 2026-05-02 14:53 666K
20260502T12Z_MSC_RDPS_WindU_IsbL-0970_RLatLon0.09_PT044H.grib2 2026-05-02 14:53 802K
20260502T12Z_MSC_RDPS_WindU_IsbL-0985_RLatLon0.09_PT044H.grib2 2026-05-02 14:53 796K
20260502T12Z_MSC_RDPS_WindU_IsbL-1000_RLatLon0.09_PT044H.grib2 2026-05-02 14:53 791K
20260502T12Z_MSC_RDPS_WindU_IsbL-1015_RLatLon0.09_PT044H.grib2 2026-05-02 14:53 784K
20260502T12Z_MSC_RDPS_WindV_AGL-10m_RLatLon0.09_PT044H.grib2 2026-05-02 14:53 437K
20260502T12Z_MSC_RDPS_WindV_AGL-120m_RLatLon0.09_PT044H.grib2 2026-05-02 14:53 424K
20260502T12Z_MSC_RDPS_WindV_AGL-40m_RLatLon0.09_PT044H.grib2 2026-05-02 14:53 545K
20260502T12Z_MSC_RDPS_WindV_AGL-80m_RLatLon0.09_PT044H.grib2 2026-05-02 14:53 425K
20260502T12Z_MSC_RDPS_WindV_IsbL-0001_RLatLon0.09_PT044H.grib2 2026-05-02 14:53 249K
20260502T12Z_MSC_RDPS_WindV_IsbL-0005_RLatLon0.09_PT044H.grib2 2026-05-02 14:53 289K
20260502T12Z_MSC_RDPS_WindV_IsbL-0010_RLatLon0.09_PT044H.grib2 2026-05-02 14:53 301K
20260502T12Z_MSC_RDPS_WindV_IsbL-0020_RLatLon0.09_PT044H.grib2 2026-05-02 14:53 318K
20260502T12Z_MSC_RDPS_WindV_IsbL-0030_RLatLon0.09_PT044H.grib2 2026-05-02 14:53 319K
20260502T12Z_MSC_RDPS_WindV_IsbL-0050_RLatLon0.09_PT044H.grib2 2026-05-02 14:53 348K
20260502T12Z_MSC_RDPS_WindV_IsbL-0100_RLatLon0.09_PT044H.grib2 2026-05-02 14:53 339K
20260502T12Z_MSC_RDPS_WindV_IsbL-0150_RLatLon0.09_PT044H.grib2 2026-05-02 14:53 403K
20260502T12Z_MSC_RDPS_WindV_IsbL-0175_RLatLon0.09_PT044H.grib2 2026-05-02 14:53 329K
20260502T12Z_MSC_RDPS_WindV_IsbL-0200_RLatLon0.09_PT044H.grib2 2026-05-02 14:53 340K
20260502T12Z_MSC_RDPS_WindV_IsbL-0225_RLatLon0.09_PT044H.grib2 2026-05-02 14:53 370K
20260502T12Z_MSC_RDPS_WindV_IsbL-0250_RLatLon0.09_PT044H.grib2 2026-05-02 14:53 374K
20260502T12Z_MSC_RDPS_WindV_IsbL-0275_RLatLon0.09_PT044H.grib2 2026-05-02 14:53 387K
20260502T12Z_MSC_RDPS_WindV_IsbL-0300_RLatLon0.09_PT044H.grib2 2026-05-02 14:53 383K
20260502T12Z_MSC_RDPS_WindV_IsbL-0350_RLatLon0.09_PT044H.grib2 2026-05-02 14:53 389K
20260502T12Z_MSC_RDPS_WindV_IsbL-0400_RLatLon0.09_PT044H.grib2 2026-05-02 14:53 367K
20260502T12Z_MSC_RDPS_WindV_IsbL-0450_RLatLon0.09_PT044H.grib2 2026-05-02 14:53 369K
20260502T12Z_MSC_RDPS_WindV_IsbL-0500_RLatLon0.09_PT044H.grib2 2026-05-02 14:53 471K
20260502T12Z_MSC_RDPS_WindV_IsbL-0550_RLatLon0.09_PT044H.grib2 2026-05-02 14:53 471K
20260502T12Z_MSC_RDPS_WindV_IsbL-0600_RLatLon0.09_PT044H.grib2 2026-05-02 14:53 478K
20260502T12Z_MSC_RDPS_WindV_IsbL-0650_RLatLon0.09_PT044H.grib2 2026-05-02 14:53 493K
20260502T12Z_MSC_RDPS_WindV_IsbL-0700_RLatLon0.09_PT044H.grib2 2026-05-02 14:53 515K
20260502T12Z_MSC_RDPS_WindV_IsbL-0750_RLatLon0.09_PT044H.grib2 2026-05-02 14:53 541K
20260502T12Z_MSC_RDPS_WindV_IsbL-0800_RLatLon0.09_PT044H.grib2 2026-05-02 14:53 588K
20260502T12Z_MSC_RDPS_WindV_IsbL-0850_RLatLon0.09_PT044H.grib2 2026-05-02 14:53 643K
20260502T12Z_MSC_RDPS_WindV_IsbL-0875_RLatLon0.09_PT044H.grib2 2026-05-02 14:53 663K
20260502T12Z_MSC_RDPS_WindV_IsbL-0900_RLatLon0.09_PT044H.grib2 2026-05-02 14:53 664K
20260502T12Z_MSC_RDPS_WindV_IsbL-0925_RLatLon0.09_PT044H.grib2 2026-05-02 14:53 671K
20260502T12Z_MSC_RDPS_WindV_IsbL-0950_RLatLon0.09_PT044H.grib2 2026-05-02 14:53 667K
20260502T12Z_MSC_RDPS_WindV_IsbL-0970_RLatLon0.09_PT044H.grib2 2026-05-02 14:53 663K
20260502T12Z_MSC_RDPS_WindV_IsbL-0985_RLatLon0.09_PT044H.grib2 2026-05-02 14:53 658K
20260502T12Z_MSC_RDPS_WindV_IsbL-1000_RLatLon0.09_PT044H.grib2 2026-05-02 14:53 795K
20260502T12Z_MSC_RDPS_WindV_IsbL-1015_RLatLon0.09_PT044H.grib2 2026-05-02 14:53 787K